STARLINK-1244 (45196 NORAD) Tracking and Keplerian Element Data

This shows tracking and keplerian element data for the satellite.

Feedback or suggestion? Click here.




ElementValue
Catalog45196
NameSTARLINK-1244
Epoch Orbit2294
Epoch Day197.25001157
Epoch Year2020
RAAN309.7598
Inclination53
Eccentricity0.0001597
Argument of Perigee118.0955
Mean Anonmoly149.8058
Mean Motion15.05561755
Decay Rate0.00033539
L11 45196U 20012U 20197.25001157 .00033539 00000-0 23112-2 0 9994
L22 45196 53.0000 309.7598 0001597 118.0955 149.8058 15.05561755 22949

Live tracking and technical data element details for STARLINK-1244 (NORAD 45196). STARLINK-1244 can be tracked NOW for your location showing map with azimuth and elevation plus other details from your city location.

Track the satellite on the map from your city or location and see movement details for azimuth, elevation, latitude, longitude, range, height, and movement on the map or in text.







IsCatalogInMostPopularTable: catalog: 45196, numindb: 25
Update: records affected: 1



GetName: 45196 STARLINK-1244

Hit Count: updated at: Thu, 16 Jul 2020 05:01:51 GMT